TimeCDT,TemperatureF,Dew PointF,Humidity,Sea Level PressureIn,VisibilityMPH,Wind Direction,Wind SpeedMPH,Gust SpeedMPH,PrecipitationIn,Events,Conditions,WindDirDegrees,DateUTC
12:53 AM,37.0,30.0,76,30.07,10.0,ENE,6.9,-,N/A,,Scattered Clouds,70,2012-03-29 05:53:00
1:53 AM,37.0,30.0,76,30.05,10.0,East,11.5,-,N/A,,Mostly Cloudy,100,2012-03-29 06:53:00
2:53 AM,39.0,30.9,73,30.03,10.0,East,12.7,-,N/A,,Mostly Cloudy,100,2012-03-29 07:53:00
3:53 AM,41.0,30.9,67,29.99,10.0,ESE,18.4,23.0,N/A,,Scattered Clouds,110,2012-03-29 08:53:00
4:53 AM,41.0,30.9,67,29.98,10.0,ESE,16.1,21.9,0.00,,Overcast,120,2012-03-29 09:53:00
5:53 AM,41.0,30.9,67,29.98,10.0,ESE,11.5,-,N/A,,Mostly Cloudy,110,2012-03-29 10:53:00
6:53 AM,42.1,30.9,65,29.95,10.0,ESE,11.5,19.6,N/A,,Overcast,120,2012-03-29 11:53:00
7:53 AM,42.1,30.9,65,29.97,10.0,East,9.2,-,N/A,,Overcast,90,2012-03-29 12:53:00
8:53 AM,39.9,33.1,77,30.02,10.0,ESE,11.5,-,0.03,Rain,Light Rain,110,2012-03-29 13:53:00
9:53 AM,39.9,34.0,79,29.99,3.0,ESE,20.7,-,0.10,Rain,Rain,120,2012-03-29 14:53:00
10:53 AM,39.0,34.0,82,29.93,6.0,ESE,23.0,31.1,0.16,Rain,Light Rain,120,2012-03-29 15:53:00
11:53 AM,42.1,36.0,79,29.88,10.0,ESE,19.6,29.9,0.03,Rain,Light Rain,110,2012-03-29 16:53:00
12:53 PM,44.1,36.0,73,29.87,10.0,ESE,18.4,26.5,0.00,,Overcast,120,2012-03-29 17:53:00
1:53 PM,43.0,36.0,76,29.86,10.0,SE,19.6,27.6,N/A,,Overcast,130,2012-03-29 18:53:00
2:53 PM,43.0,36.0,76,29.84,10.0,SE,17.3,23.0,N/A,,Overcast,140,2012-03-29 19:53:00
3:53 PM,44.1,36.0,73,29.81,10.0,SE,18.4,28.8,N/A,,Overcast,140,2012-03-29 20:53:00
4:39 PM,44.6,37.4,76,29.77,10.0,SE,13.8,23.0,N/A,,Overcast,140,2012-03-29 21:39:00
4:53 PM,44.1,37.0,76,29.80,10.0,SE,12.7,-,N/A,,Overcast,140,2012-03-29 21:53:00
5:53 PM,45.0,37.9,76,29.81,10.0,South,3.5,-,N/A,,Overcast,180,2012-03-29 22:53:00
6:53 PM,46.0,39.9,79,29.80,10.0,Calm,Calm,-,0.00,,Overcast,0,2012-03-29 23:53:00
7:10 PM,46.4,39.2,76,29.78,10.0,East,3.5,-,N/A,,Overcast,90,2012-03-30 00:10:00
7:24 PM,46.4,39.2,76,29.78,10.0,ESE,5.8,-,N/A,,Overcast,120,2012-03-30 00:24:00
7:53 PM,44.1,39.0,82,29.81,10.0,North,9.2,-,N/A,,Overcast,10,2012-03-30 00:53:00
8:04 PM,44.6,39.2,81,29.78,10.0,NE,5.8,-,N/A,,Overcast,50,2012-03-30 01:04:00
8:53 PM,43.0,39.0,86,29.81,10.0,North,4.6,-,N/A,,Overcast,10,2012-03-30 01:53:00
9:02 PM,42.8,39.2,87,29.79,10.0,NNE,3.5,-,N/A,,Overcast,30,2012-03-30 02:02:00
9:09 PM,42.8,39.2,87,29.80,10.0,North,3.5,-,N/A,,Overcast,10,2012-03-30 02:09:00
9:21 PM,42.8,39.2,87,29.80,10.0,NNW,4.6,-,N/A,,Overcast,340,2012-03-30 02:21:00
9:53 PM,42.1,39.0,89,29.82,10.0,North,4.6,-,N/A,,Overcast,10,2012-03-30 02:53:00
10:04 PM,41.0,37.4,87,29.79,10.0,North,4.6,-,N/A,,Overcast,10,2012-03-30 03:04:00
10:53 PM,39.9,37.0,89,29.82,9.0,Calm,Calm,-,N/A,,Mostly Cloudy,0,2012-03-30 03:53:00
11:02 PM,39.2,37.4,93,29.79,8.0,East,3.5,-,N/A,,Scattered Clouds,80,2012-03-30 04:02:00
11:29 PM,37.4,35.6,93,29.78,1.8,Calm,Calm,-,N/A,,Clear,0,2012-03-30 04:29:00
11:40 PM,35.6,33.8,93,29.77,0.5,Calm,Calm,-,N/A,Fog,Fog,0,2012-03-30 04:40:00
11:53 PM,35.1,32.0,89,29.81,0.2,Calm,Calm,-,N/A,Fog,Fog,0,2012-03-30 04:53:00